FW5225 Weather Reports


time (UTC)temp
F
wind
direction
speed
knots
gust
knots
rain 1hr
in
rain 24hr
in
rain mn
in
humidity
%
barometer
mb
20260503192558 93 229 0.9 7.8 0.00 0.00 0.00 14 1007.1
20260503192057 93 213 0.9 5.2 0.00 0.00 0.00 14 1007.2
20260503191605 93 145 0.0 6.1 0.00 0.00 0.00 15 1007.3
20260503191056 93 148 1.7 5.2 0.00 0.00 0.00 16 1007.5
20260503190555 93 215 1.7 5.2 0.00 0.00 0.00 16 1007.5
20260503190054 93 144 1.7 4.3 0.00 0.00 0.00 16 1007.4
20260503185552 92 192 0.9 5.2 0.00 0.00 0.00 16 1007.4
20260503185051 92 192 0.9 5.2 0.00 0.00 0.00 18 1007.5
20260503184600 92 163 1.7 5.2 0.00 0.00 0.00 18 1007.6
20260503184049 91 168 1.7 5.2 0.00 0.00 0.00 17 1007.8
20260503183549 90 189 0.9 4.3 0.00 0.00 0.00 19 1007.9
20260503183046 90 112 1.7 5.2 0.00 0.00 0.00 19 1008.0
20260503182545 90 355 0.9 7.0 0.00 0.00 0.00 21 1008.0
20260503182044 89 97 2.6 7.0 0.00 0.00 0.00 20 1008.2
20260503181607 89 185 2.6 7.8 0.00 0.00 0.00 20 1008.2
20260503181042 89 244 0.9 7.8 0.00 0.00 0.00 22 1008.2
20260503180541 89 109 1.7 6.1 0.00 0.00 0.00 20 1008.3
20260503180050 88 220 0.9 7.0 0.00 0.00 0.00 22 1008.5
20260503175538 88 90 2.6 7.8 0.00 0.00 0.00 22 1008.5
20260503175037 87 138 2.6 7.8 0.00 0.00 0.00 23 1008.6
20260503174545 87 95 2.6 7.8 0.00 0.00 0.00 22 1008.6
20260503174035 86 116 2.6 7.0 0.00 0.00 0.00 24 1008.6
20260503173533 86 136 1.7 7.8 0.00 0.00 0.00 24 1008.7
20260503173041 85 78 0.9 7.8 0.00 0.00 0.00 25 1008.8
20260503172530 85 162 2.6 7.0 0.00 0.00 0.00 25 1008.8
20260503172031 84 107 2.6 7.0 0.00 0.00 0.00 26 1008.8
20260503171527 84 72 2.6 9.6 0.00 0.00 0.00 26 1008.9
20260503171029 83 86 1.7 9.6 0.00 0.00 0.00 27 1008.9
20260503170530 83 130 2.6 7.0 0.00 0.00 0.00 27 1008.9
20260503151004 78 50 1.7 7.0 0.00 0.00 0.00 31 1008.7
20260503150507 78 81 3.5 7.0 0.00 0.00 0.00 30 1008.7
20260503131042 77 56 3.5 7.8 0.00 0.00 0.00 29 1007.8
20260503130541 77 45 3.5 7.8 0.00 0.00 0.00 28 1007.8
20260503110535 78 54 2.6 5.2 0.00 0.00 0.00 24 1007.7
20260503081535 76 35 0.0 2.6 0.00 0.00 0.00 24 1007.9
20260503081019 76 17 0.0 3.5 0.00 0.00 0.00 23 1008.0
20260503080519 76 5 0.0 3.5 0.00 0.00 0.00 22 1008.1
20260503072519 76 125 1.7 6.1 0.00 0.00 0.00 23 1008.3
20260503072015 76 104 0.0 0.0 0.00 0.00 0.00 24 1008.1
20260503071514 76 33 0.0 0.0 0.00 0.00 0.00 25 1007.9
20260503071013 76 33 0.0 0.0 0.00 0.00 0.00 25 1007.9
20260503070512 76 33 0.0 0.0 0.00 0.00 0.00 26 1007.8
20260503055009 76 360 0.0 1.7 0.00 0.00 0.00 28 1007.5
20260503054515 77 37 0.0 1.7 0.00 0.00 0.00 28 1007.4
20260503054009 77 11 0.0 1.7 0.00 0.00 0.00 30 1007.5
20260503053509 77 344 0.0 1.7 0.00 0.00 0.00 25 1007.5
20260503053010 77 344 0.0 1.7 0.00 0.00 0.00 27 1007.6
20260503052509 77 344 0.0 0.0 0.00 0.00 0.00 28 1007.6
20260503052009 77 344 0.0 1.7 0.00 0.00 0.00 27 1007.5
20260503051517 77 344 0.0 1.7 0.00 0.00 0.00 27 1007.4
20260503051008 77 344 0.0 1.7 0.00 0.00 0.00 28 1007.4
20260503050508 77 355 0.0 1.7 0.00 0.00 0.00 29 1007.5
20260503050008 77 24 0.0 1.7 0.00 0.00 0.00 28 1007.5
20260503045507 77 10 0.0 0.0 0.00 0.00 0.00 32 1007.5
20260503045008 77 10 0.0 1.7 0.00 0.00 0.00 28 1007.6
20260503044508 77 10 0.0 1.7 0.00 0.00 0.00 27 1007.5
20260503044007 77 10 0.0 1.7 0.00 0.00 0.00 25 1007.6
20260503043508 77 10 0.0 1.7 0.00 0.00 0.00 31 1007.5
20260503043007 77 10 0.0 1.7 0.00 0.00 0.00 29 1007.4
20260503042507 77 33 0.0 1.7 0.00 0.00 0.00 31 1007.4
20260503042007 77 33 0.0 1.7 0.00 0.00 0.00 26 1007.3
20260503041506 77 37 0.0 1.7 0.00 0.00 0.00 28 1007.2
20260503041010 77 37 0.0 1.7 0.00 0.00 0.00 30 1007.2
20260503040506 78 37 0.9 1.7 0.00 0.00 0.00 29 1007.1
20260503040006 78 28 0.0 1.7 0.00 0.00 0.00 31 1007.1
20260503035505 79 37 0.0 1.7 0.00 0.00 0.00 25 1006.9
20260503035005 79 40 0.9 1.7 0.00 0.00 0.00 28 1006.8
20260503034506 80 36 0.0 1.7 0.00 0.00 0.00 26 1006.9
20260503034004 81 28 0.0 0.9 0.00 0.00 0.00 27 1006.8
20260503033507 81 42 0.0 0.9 0.00 0.00 0.00 19 1006.8
20260503033010 81 42 0.0 0.9 0.00 0.00 0.00 21 1006.7
20260503032506 82 42 0.0 1.7 0.00 0.00 0.00 21 1006.7
20260503032004 82 32 0.0 1.7 0.00 0.00 0.00 23 1006.7
20260503031504 83 13 0.0 2.6 0.00 0.00 0.00 21 1006.5
20260503031004 83 5 0.0 2.6 0.00 0.00 0.00 21 1006.5
20260503030505 83 360 0.0 2.6 0.00 0.00 0.00 20 1006.4
20260503030007 83 28 0.9 2.6 0.00 0.00 0.00 18 1006.3
20260503025503 84 39 0.9 1.7 0.00 0.00 0.00 18 1006.4
20260503025003 84 35 0.9 1.7 0.00 0.00 0.00 18 1006.4
20260503024503 84 9 0.0 1.7 0.00 0.00 0.00 20 1006.3
20260503024003 84 16 0.0 1.7 0.00 0.00 0.00 18 1006.3
20260503023503 84 13 0.0 1.7 0.00 0.00 0.00 20 1006.3
20260503023002 85 13 0.0 2.6 0.00 0.00 0.00 19 1006.3
20260503022502 85 360 0.0 2.6 0.00 0.00 0.00 18 1006.3
20260503022002 85 27 0.0 2.6 0.00 0.00 0.00 17 1006.3
20260503021502 85 21 0.9 2.6 0.00 0.00 0.00 18 1006.3
20260503021002 86 20 0.9 4.3 0.00 0.00 0.00 17 1006.3
20260503020502 86 13 0.9 4.3 0.00 0.00 0.00 17 1006.2
20260503020002 86 5 2.6 4.3 0.00 0.00 0.00 16 1006.3
20260503015500 86 29 1.7 4.3 0.00 0.00 0.00 19 1006.3
20260503015001 87 34 1.7 3.5 0.00 0.00 0.00 17 1006.3
20260503014501 87 32 0.9 3.5 0.00 0.00 0.00 18 1006.4
20260503014101 87 18 0.0 3.5 0.00 0.00 0.00 16 1006.4
20260503013600 87 59 0.9 3.5 0.00 0.00 0.00 16 1006.3
20260503013059 87 42 1.7 4.3 0.00 0.00 0.00 16 1006.3
20260503012559 88 37 1.7 4.3 0.00 0.00 0.00 16 1006.4
20260503012059 88 57 1.7 4.3 0.00 0.00 0.00 15 1006.4
20260503011604 88 46 1.7 4.3 0.00 0.00 0.00 17 1006.4
20260503011101 88 27 0.9 4.3 0.00 0.00 0.00 16 1006.4
20260503010558 89 5 0.9 3.5 0.00 0.00 0.00 18 1006.4
20260503010108 89 5 0.9 2.6 0.00 0.00 0.00 16 1006.4
20260503005559 89 23 0.0 4.3 0.00 0.00 0.00 16 1006.5
20260503005057 89 30 0.9 4.3 0.00 0.00 0.00 15 1006.6
20260503004557 90 24 2.6 4.3 0.00 0.00 0.00 16 1006.5
20260503004056 90 15 0.9 7.8 0.00 0.00 0.00 15 1006.6
20260503003555 90 148 0.0 7.8 0.00 0.00 0.00 15 1006.6
20260503003113 90 32 0.9 8.7 0.00 0.00 0.00 14 1006.6
20260503002555 90 325 0.9 9.6 0.00 0.00 0.00 15 1006.7
20260503002055 91 58 4.3 9.6 0.00 0.00 0.00 14 1006.6
20260503001555 92 61 3.5 7.0 0.00 0.00 0.00 14 1006.7
20260503001058 92 105 0.9 2.6 0.00 0.00 0.00 13 1006.7
20260503000554 92 35 0.0 2.6 0.00 0.00 0.00 15 1006.6
20260503000056 91 333 0.0 4.3 0.00 0.00 0.00 15 1006.6
20260502235554 91 45 2.6 4.3 0.00 0.00 0.00 14 1006.6
20260502235054 91 98 0.0 4.3 0.00 0.00 0.00 13 1006.7
20260502234554 92 15 0.9 4.3 0.00 0.00 0.00 14 1006.6
20260502234054 92 307 0.9 6.1 0.00 0.00 0.00 14 1006.7
20260502233554 91 42 1.7 6.1 0.00 0.00 0.00 16 1006.6
20260502233053 91 15 0.0 4.3 0.00 0.00 0.00 15 1006.6
20260502232552 91 350 1.7 4.3 0.00 0.00 0.00 14 1006.7
20260502232053 91 5 1.7 7.0 0.00 0.00 0.00 14 1006.7
20260502231554 91 5 3.5 7.0 0.00 0.00 0.00 15 1006.7
20260502231053 92 336 2.6 7.0 0.00 0.00 0.00 14 1006.7
20260502230555 92 5 3.5 7.0 0.00 0.00 0.00 15 1006.8
20260502230051 93 261 0.9 3.5 0.00 0.00 0.00 13 1006.9
20260502225550 93 286 0.0 5.2 0.00 0.00 0.00 14 1007.0
20260502225050 93 294 2.6 5.2 0.00 0.00 0.00 13 1007.0
20260502224550 93 311 0.0 7.8 0.00 0.00 0.00 14 1007.1
20260502224049 92 111 1.7 7.8 0.00 0.00 0.00 13 1007.1
20260502223548 92 136 0.9 7.0 0.00 0.00 0.00 13 1007.2
20260502223047 91 150 1.7 7.0 0.00 0.00 0.00 15 1007.4
20260502222548 92 316 4.3 7.0 0.00 0.00 0.00 14 1007.4
20260502222045 92 49 2.6 7.0 0.00 0.00 0.00 13 1007.6
20260502221545 92 42 3.5 6.1 0.00 0.00 0.00 12 1007.6
20260502221044 92 61 0.9 6.1 0.00 0.00 0.00 13 1007.7
20260502220544 92 53 0.9 7.0 0.00 0.00 0.00 14 1007.8
20260502220044 93 82 1.7 7.0 0.00 0.00 0.00 14 1007.9
20260502215544 92 173 0.9 7.8 0.00 0.00 0.00 13 1008.0
20260502215048 92 82 1.7 7.8 0.00 0.00 0.00 13 1008.1
20260502214547 93 51 1.7 7.0 0.00 0.00 0.00 13 1008.2
20260502214044 93 68 1.7 7.0 0.00 0.00 0.00 13 1008.3
20260502213543 94 168 2.6 10.4 0.00 0.00 0.00 12 1008.4
20260502213046 94 173 1.7 7.8 0.00 0.00 0.00 12 1008.4
20260502212543 95 118 0.9 4.3 0.00 0.00 0.00 12 1008.5
20260502212043 95 304 1.7 4.3 0.00 0.00 0.00 12 1008.5
20260502211542 94 78 0.0 4.3 0.00 0.00 0.00 13 1008.6
20260502211042 94 122 0.0 4.3 0.00 0.00 0.00 12 1008.6
20260502210540 94 267 1.7 5.2 0.00 0.00 0.00 12 1008.7
20260502210039 93 227 0.9 5.2 0.00 0.00 0.00 12 1008.7
20260502205540 92 154 0.9 7.8 0.00 0.00 0.00 13 1008.8
20260502205037 91 132 0.9 7.8 0.00 0.00 0.00 16 1008.9
20260502204538 91 355 0.0 7.0 0.00 0.00 0.00 17 1008.9
20260502204037 92 94 0.9 3.5 0.00 0.00 0.00 14 1009.0
20260502203536 91 327 0.0 3.5 0.00 0.00 0.00 16 1008.9
20260502203050 91 327 0.9 9.6 0.00 0.00 0.00 14 1009.0
20260502202540 91 214 3.5 9.6 0.00 0.00 0.00 13 1009.3
20260502202036 92 72 2.6 7.8 0.00 0.00 0.00 14 1009.3
20260502201535 92 129 2.6 7.0 0.00 0.00 0.00 15 1009.3
20260502201038 91 126 1.7 5.2 0.00 0.00 0.00 17 1009.3
20260502200534 91 69 0.0 4.3 0.00 0.00 0.00 16 1009.4
20260502200032 90 81 1.7 5.2 0.00 0.00 0.00 16 1009.4
20260502195530 90 156 2.6 6.1 0.00 0.00 0.00 18 1009.6
20260502195030 89 19 1.7 8.7 0.00 0.00 0.00 19 1009.5
20260502194533 90 105 4.3 8.7 0.00 0.00 0.00 18 1009.7
20260502194030 90 82 2.6 8.7 0.00 0.00 0.00 19 1009.8
20260502193529 90 75 3.5 8.7 0.00 0.00 0.00 20 1009.8
20260502193029 90 219 1.7 4.3 0.00 0.00 0.00 21 1009.9